• MPC Preparation (Info)

  • MPEC 2016-O38 : 2013 JV65

    The following Minor Planet Electronic Circular may be linked-to from your own Web pages, but must not otherwise be redistributed electronically.

    A form allowing access to any MPEC is at the bottom of this page.


    Read MPEC 2016-O37 Read MPEC 2016-O39


    M.P.E.C. 2016-O38                                Issued 2016 July 16, 20:51 UT
    
         The Minor Planet Electronic Circulars contain information on unusual
             minor planets and routine data on comets.  They are published
        on behalf of Division F of the International Astronomical Union by the
              Minor Planet Center, Smithsonian Astrophysical Observatory,
                              Cambridge, MA 02138, U.S.A.
    
                 Prepared using the Tamkin Foundation Computer Network
    
                                  MPC@CFA.HARVARD.EDU
                URL https://www.minorplanetcenter.net/    ISSN 1523-6714
    
                                       2013 JV65
    
    Observations:
         K13J65V* C2013 05 05.39373 15 00 05.972-19 40 17.54         22.3 wLEO038F51
         K13J65V  C2013 05 05.40854 15 00 05.888-19 40 16.72         22.4 wLEO038F51
         K13J65V  C2013 05 05.42332 15 00 05.834-19 40 16.57         22.4 wLEO038F51
         K13J65V  C2013 06 01.35872 14 57 56.671-19 31 15.87         22.6 wLEO038F51
         K13J65V  C2013 06 01.37353 14 57 56.601-19 31 15.58         22.6 wLEO038F51
         K13J65V  C2013 06 01.38833 14 57 56.532-19 31 15.22         23.0 wLEO038F51
         K13J65V  C2013 06 01.40315 14 57 56.476-19 31 15.03         22.4 wLEO038F51
         K13J65V  C2014 05 20.37837 15 04 29.225-20 01 25.48         22.7 wLEO038F51
         K13J65V  C2014 05 20.38969 15 04 29.171-20 01 25.48         22.6 wLEO038F51
         K13J65V  C2014 05 20.40100 15 04 29.123-20 01 25.06         22.5 wLEO038F51
         K13J65V  C2014 05 20.41228 15 04 29.064-20 01 24.89         22.6 wLEO038F51
         K13J65V  C2015 06 11.31552 15 08 27.781-20 20 03.63         22.6 wLEO038F51
         K13J65V  C2015 06 11.32671 15 08 27.739-20 20 03.25         22.5 wLEO038F51
         K13J65V  C2015 06 11.33792 15 08 27.670-20 20 03.11         22.3 wLEO038F51
         K13J65V  C2015 06 11.34912 15 08 27.653-20 20 03.01         22.3 wLEO038F51
    
    Observer details:
    F51 Pan-STARRS 1, Haleakala.  Observers B. Gibson, T. Goggia, N. Primak,
        A. Schultz, M. Willman.  Measurers K. Chambers, S. Chastel, Y.-T. Chen,
        L. Denneau, H. Flewelling, M. Holman, M. Huber, R. Jedicke, M. Lackner,
        E. Lilly, H.-W. Lin, E. Magnier, M. Micheli, M. Payne, P. Veres,
        R. Wainscoat, C. Waters, R. Weryk.  1.8-m Ritchey-Chretien + CCD.
    
    Orbital elements:
    2013 JV65
    Epoch 2016 July 31.0 TT = JDT 2457600.5                 MPC
    M 325.23504              (2000.0)            P               Q
    n   0.00350421     Peri.  271.67095     -0.00115041     +0.99999790
    a  42.9281612      Node   358.26042     -0.89379727     -0.00179000
    e   0.0380286      Incl.    3.20764     -0.44846975     +0.00100229
    P 281              H    6.2           G   0.15           U   4
    Residuals in seconds of arc
    130505 F51  0.0   0.2-    130601 F51  0.1-  0.0     140520 F51  0.0   0.0
    130505 F51  0.1-  0.3+    130601 F51  0.1+  0.1-    150611 F51  0.0   0.1-
    130505 F51  0.2+  0.2+    140520 F51  0.1-  0.0     150611 F51  0.1+  0.1+
    130601 F51  0.0   0.1-    140520 F51  0.1-  0.2-    150611 F51  0.2-  0.1+
    130601 F51  0.0   0.1-    140520 F51  0.1+  0.0     150611 F51  0.2+  0.0
    
    Ephemeris:
    2013 JV65                a,e,i = 42.93, 0.04, 3                  q = 41.296
    Date    TT    R. A. (2000) Decl.     Delta      r     Elong.  Phase     V
    2016 06 16    15 13 45.0 -20 43 28  40.7606 41.6110   146.4     0.8    22.5
    ...
    2016 07 01    15 12 52.9 -20 39 35  40.9234 41.6101   132.0     1.0    22.5
    ...
    2016 07 09    15 12 31.9 -20 37 52  41.0288 41.6096   124.3     1.2    22.5
    ...
    2016 07 15    15 12 19.7 -20 36 47  41.1147 41.6092   118.5     1.2    22.5
    2016 07 16    15 12 17.9 -20 36 37  41.1295 41.6092   117.5     1.2    22.5
    2016 07 17    15 12 16.3 -20 36 27  41.1445 41.6091   116.6     1.3    22.5
    ...
    2016 07 23    15 12 08.3 -20 35 37  41.2367 41.6087   110.8     1.3    22.6
    ...
    2016 07 31    15 12 02.9 -20 34 49  41.3653 41.6082   103.2     1.4    22.6
    ...
    2016 08 15    15 12 09.4 -20 34 22  41.6158 41.6073    88.8     1.4    22.6
    
    A. U. Tomatic                (C) Copyright 2016 MPC           M.P.E.C. 2016-O38
    

    Read MPEC 2016-O37 Read MPEC 2016-O39


    MPEC number:

    Enter an MPEC number in one of the following forms:

    • 1997-B01 (the full form)
    • J97B01 (the packed version of the full form)
    • B01 (the abbreviated form)